Terminal Aerodrome Forecast
Issued by NWS

Home | Current Version | Previous Version | Text Only | Print | Product List | Glossary On
Versions: 1 2 3 4 5 6 7 8 9 10 11 12 13 14 15 16 17 18 19 20 21 22
000
FTUS43 KDLH 241011 AAC
TAFHYR
TAF AMD
KHYR 241011Z 2410/2506 18007KT P6SM VCSH BKN014
      TEMPO 2410/2414 2SM -SHRA BR BKN008
     FM241400 23006KT P6SM VCSH BKN026
     FM242000 26008KT P6SM SCT026 BKN035
     FM242300 26004KT P6SM SCT035=

USA.gov is the U.S. government's official web portal to all federal, state and local government web resources and services.